Regional Weather Roundup
Issued by NWS

Home | Current Version | Previous Version | Graphics & Text | Print | Product List | Glossary Off
Versions: 1 2 3 4 5 6 7 8 9 10 11 12 13 14 15 16 17 18 19 20 21 22 23 24 25 26 27 28 29 30 31 32 33 34 35 36 37 38 39 40 41 42 43 44 45 46 47 48 49 50

000
ASUS45 KTFX 300510
RWRMT
MONTANA REGIONAL WEATHER ROUNDUP
NATIONAL WEATHER SERVICE GREAT FALLS MT
1100 PM MDT MON MAY 29 2017

NOTE: "FAIR" INDICATES FEW OR NO CLOUDS BELOW 12000 FEET WITH NO
SIGNIFICANT WEATHER AND/OR OBSTRUCTIONS TO VISIBILITY.

MTZ001>007-043-300600-
WEST OF THE DIVIDE

CITY           SKY/WX    TMP DP  RH WIND       PRES   REMARKS
KALISPELL      CLEAR     60  46  59 NW3       30.03R
MISSOULA       CLEAR     65  43  44 NW6       30.04R
BUTTE          CLEAR     55  40  56 CALM      30.18R
MULLAN PASS    CLEAR     60  34  37 SE8       30.17S
ANACONDA         N/A     55  36  47 SW5       30.15R
DEER LODGE       N/A     57  39  51 W3        30.16S
EUREKA           N/A     61  45  55 CALM      30.02R
HAMILTON         N/A     57  45  62 CALM      30.05R
PLAINS           N/A     64  52  65 CALM      30.02
RONAN            N/A     64  46  52 CALM      30.08R
$$

MTZ008-052>055-300600-
SOUTHWEST MONTANA

CITY           SKY/WX    TMP DP  RH WIND       PRES   REMARKS
BOZEMAN        CLOUDY    55  44  66 VRB6      30.13S
DILLON         PTCLDY    57  39  51 S3        30.15R
ENNIS          CLOUDY    55  39  54 SE9       30.22R
THREE FORKS      N/A     56  45  66 CALM      30.11R
$$

MTZ009-010-012-014-046-048-049-054-300600-
EAST SLOPES AND CENTRAL MONTANA

CITY           SKY/WX    TMP DP  RH WIND       PRES   REMARKS
CUT BANK       PTCLDY    59  43  55 NE13      30.11F
GREAT FALLS    CLOUDY    60  45  57 E8        30.10F
MALMSTROM AFB  PTCLDY    55  48  77 S10       30.11S
HELENA         CLEAR     64  41  42 SW7       30.10R
CHOTEAU          N/A     57  45  62 CALM      30.14S
CONRAD           N/A     55  55 100 E2        30.13S
$$

MTZ011-013-016-021-045-047-050-051-300600-
NORTH CENTRAL MONTANA

CITY           SKY/WX    TMP DP  RH WIND       PRES   REMARKS
HAVRE          CLEAR     60  33  36 E12       30.11R
LEWISTOWN      CLEAR     48  41  76 SE7       30.16R
N BAR RANCH      N/A     48  39  71 W8        30.20S
CHINOOK          N/A     57  34  41 CALM      30.11R
FORT BENTON      N/A     61  39  44 MISG      30.10S
$$

MTZ017>020-022>027-061-062-300600-
NORTHEAST MONTANA

CITY           SKY/WX    TMP DP  RH WIND       PRES   REMARKS
GLASGOW        CLEAR     50  27  40 NE12      30.10S
JORDAN           N/A     47  29  49 W3        30.11S
SIDNEY         CLEAR     48  30  49 NW13      30.07F
WOLF POINT     CLEAR     45  28  51 CALM      30.10R
MALTA          CLEAR     50  34  53 CALM      30.11S
PLENTYWOOD       N/A     50  28  43 N9        30.08S
POPLAR           N/A     52  28  40 N6        30.10R
SCOBEY           N/A     41  23  48 CALM      30.08F
$$

MTZ028>42-056>058-300600-
SOUTHCENTRAL AND SOUTHEAST MONTANA

CITY           SKY/WX    TMP DP  RH WIND       PRES   REMARKS
BAKER          CLEAR     44  31  60 CALM      30.11R
BILLINGS       PTCLDY    61  41  47 E5        30.13R
LIVINGSTON     CLEAR     52  42  69 CALM      30.16R
MILES CITY     CLEAR     53  27  36 N5        30.10S
BIG TIMBER     CLEAR     57  45  62 NE3       30.19S
EKALAKA          N/A     49  25  39 CALM      30.09S
FORSYTH          N/A     52  30  43 CALM      30.11S
LAUREL           N/A     56  41  57 NW2       30.11F
ROUNDUP          N/A     57  31  37 N3        30.05R
$$

REGIONAL REPORTS...DAKOTAS

CITY           SKY/WX    TMP DP  RH WIND       PRES   REMARKS
WILLISTON      CLEAR     50  30  46 NW13      30.06S
MINOT          CLEAR     49  38  65 W8        30.01S
DICKINSON      CLEAR     40  29  64 W7        30.04S
BEACH            N/A     41  34  75 NW5       30.12S
CROSBY           N/A     46  30  53 NW8       30.06S
TIOGA            N/A     43  32  65 CALM      30.06S
WATFORD CITY     N/A     52  30  43 NW8       30.04F
BISMARCK       CLEAR     52  39  61 N6        30.02R
GRAND FORKS    CLOUDY    50  43  77 NW16      29.91S
FARGO          CLOUDY    51  45  79 N8        29.92S
BUFFALO SD       N/A     50  31  48 NW7       30.04S
RAPID CITY     CLEAR     47  29  49 NW9       30.12S
$$

REGIONAL REPORTS...WYOMING/IDAHO/WASHINGTON

CITY           SKY/WX    TMP DP  RH WIND       PRES   REMARKS
GILLETTE       CLEAR     42  33  70 W7        30.16F
SHERIDAN       CLEAR     43  39  86 CALM      30.15F
BUFFALO WY     CLEAR     49  37  63 W8        30.20F
CODY           CLEAR     52  39  61 S5        30.21S
YELLOWSTONE LA   N/A     38  32  79 CALM      30.33R
IDAHO FALLS    CLEAR     57  48  72 CALM      30.13R
SALMON         CLOUDY    57  46  67 SE5       30.05R
BOISE          CLEAR     71  42  35 SE8       29.97R
SPOKANE        PTCLDY    78  43  28 CALM      29.95R
$$

REGIONAL REPORTS...ALBERTA

CITY           SKY/WX    TMP DP  RH WIND       PRES   REMARKS
EDMONTON       CLEAR     57  37  47 E7        30.10S
CALGARY        PTCLDY    61  45  55 SE15G25   30.11R
LETHBRIDGE     PTCLDY    59  41  51 SE10      30.10R
MEDICINE HAT   CLEAR     57  36  44 E6        30.10S
CARDSTON         N/A     57  46  67 W2          N/A
MILK RIVER       N/A     57  41  54 N6          N/A
$$

REGIONAL REPORTS...SASKATCHEWAN

CITY           SKY/WX    TMP DP  RH WIND       PRES   REMARKS
SWIFT CURRENT  CLEAR     50  28  43 NE6       30.12S
REGINA         CLEAR     52  34  50 NE13      30.10R
SASKATOON      CLEAR     48  32  53 NE7       30.15R
CYPRESS HILLS    N/A     45  30  57 NE2         N/A
VAL MARIE        N/A     41  27  56 NE1         N/A
ROCKGLEN         N/A     48  27  43 N5          N/A
ASSINIBOIA       N/A     57  28  33 E8          N/A
$$



USA.gov is the U.S. government's official web portal to all federal, state and local government web resources and services.